Theta_e
314 314 318 320 322 324 326 328 328 326 326 326 323 323 329 339 330 326 345 351 330 331 351 355 347 344 344 346 344 344 344 343 345 346 346 347 346 348 348 348 350 350 349 350 350 350 351 351 351 352 351 352 353 354 355 356 355 356 356 357 356 356 356 356 356 356 354 353 350 347 345 343 342 341 341 340 339 338 337 336 335 335 334 333 333 333 333
313 315 318 321 323 325 326 329 329 328 327 326 325 326 330 336 336 341 359 355 338 336 347 348 342 339 341 344 342 341 343 344 344 345 345 346 346 346 347 348 349 349 349 349 348 348 350 350 351 352 352 353 353 353 354 355 356 356 357 357 358 358 357 358 358 357 356 354 352 351 348 346 344 343 342 342 341 340 338 336 335 335 335 336 336 335 334
314 317 320 320 321 323 326 329 332 332 331 327 325 327 329 331 332 340 354 353 343 342 345 344 339 336 341 346 343 341 343 343 343 344 344 344 345 345 347 347 347 348 349 349 349 349 350 350 350 351 351 352 353 353 354 355 356 357 358 359 359 359 359 359 359 358 357 356 355 353 351 348 346 344 343 344 344 342 339 338 337 337 337 337 337 337 336
315 317 318 319 321 325 328 331 333 335 332 327 326 326 327 330 332 337 345 344 343 345 343 341 340 341 346 347 341 341 343 343 343 343 343 344 345 345 346 346 346 348 348 348 349 349 349 349 350 349 350 352 353 354 355 356 357 359 359 360 360 360 361 360 360 360 359 358 356 355 354 351 349 346 346 346 346 344 343 341 339 338 338 338 338 338 337
316 316 315 318 322 328 331 330 329 331 332 332 334 331 329 335 336 335 338 343 351 350 342 340 342 342 345 342 336 338 343 343 344 343 342 343 344 344 345 345 346 346 347 348 348 349 348 348 347 347 348 351 353 354 356 358 358 360 361 361 362 361 362 362 361 361 360 360 359 358 356 355 353 351 349 348 347 346 344 343 343 341 340 339 339 339 339
316 314 316 322 325 329 333 330 327 330 333 340 344 341 339 340 339 337 340 348 355 349 338 338 339 336 338 337 334 339 346 345 343 343 343 343 343 343 345 344 345 346 345 347 348 347 347 346 345 346 346 347 349 351 354 357 358 360 361 362 362 363 362 362 363 362 362 362 361 360 360 358 356 354 352 350 348 347 348 347 346 344 341 341 341 341 340
316 317 324 332 332 331 334 330 327 330 334 339 343 342 341 341 340 343 347 347 345 340 336 335 334 334 338 338 336 339 344 346 345 343 344 343 343 343 344 344 345 345 345 346 347 347 346 345 345 346 347 348 350 352 354 357 358 360 362 362 363 363 363 363 363 363 363 363 363 363 362 361 359 357 354 352 350 349 349 349 347 344 343 342 342 341 341
318 321 328 335 333 331 332 329 327 330 330 333 341 343 340 339 339 340 343 344 343 341 335 330 334 340 344 346 345 340 339 344 347 346 346 345 344 344 345 345 344 344 344 344 345 345 346 346 348 350 351 354 356 358 360 361 362 363 363 364 364 363 363 364 364 364 364 364 364 364 364 363 362 359 357 355 351 350 350 349 348 346 345 344 342 343 342
321 319 321 329 335 336 335 330 327 328 328 330 339 344 340 337 337 338 341 343 345 345 339 332 337 347 352 358 358 351 344 340 340 345 348 348 346 347 345 346 345 345 345 345 345 346 346 349 351 353 356 358 361 363 363 363 364 365 364 364 364 364 364 364 364 364 364 365 365 365 364 364 363 362 360 358 355 353 351 350 349 347 345 344 343 344 344
321 318 319 328 339 342 336 329 324 326 329 328 334 343 342 337 336 337 339 341 343 348 348 342 343 354 364 366 364 358 354 347 336 342 350 351 351 351 348 348 349 347 347 347 347 348 348 349 350 350 354 357 360 363 364 364 365 365 365 365 364 364 364 364 364 364 364 365 365 365 365 365 364 363 362 360 358 356 353 351 349 347 346 346 345 346 346
317 316 317 325 336 339 331 326 325 326 329 328 331 342 343 338 335 336 339 340 341 344 348 348 351 361 367 368 362 356 357 356 349 351 354 354 354 353 351 352 353 353 354 354 354 356 358 357 356 354 354 354 355 358 361 364 365 366 365 366 365 365 365 364 364 365 365 365 364 365 364 364 364 363 362 362 360 358 355 353 350 348 349 350 350 347 347
316 318 318 324 335 336 327 324 326 327 328 331 339 346 344 337 334 336 339 340 341 341 342 346 350 357 363 364 360 357 357 356 356 357 357 356 356 356 354 354 353 354 356 358 359 359 359 360 361 360 361 360 359 359 360 362 365 365 366 366 365 365 365 365 365 365 365 365 365 364 364 364 364 363 363 362 362 359 358 355 352 351 351 351 352 351 350
315 317 318 323 332 332 326 325 326 327 330 337 344 345 340 334 334 336 337 340 341 341 341 343 345 348 355 358 360 361 360 356 356 357 355 355 356 354 353 353 352 351 351 353 354 350 347 348 351 355 360 360 358 359 360 361 362 362 364 364 365 365 366 366 366 365 365 365 364 364 364 364 363 363 363 362 362 360 359 358 355 353 352 351 351 351 351
314 315 316 322 329 328 325 325 326 328 335 341 341 338 334 331 332 333 336 339 341 340 341 342 343 346 351 356 360 362 361 359 359 357 354 353 352 350 347 345 345 345 347 350 350 346 345 345 345 349 354 357 357 357 356 357 357 356 358 360 362 364 366 365 366 366 365 365 365 364 364 364 363 363 363 362 362 361 361 359 357 355 354 352 352 352 352
314 315 318 325 330 326 323 328 331 332 335 338 336 333 330 330 330 331 334 337 339 340 340 340 342 345 348 353 357 359 360 360 359 357 355 353 351 349 346 342 340 339 338 339 340 340 342 345 347 346 347 350 356 358 357 359 358 355 355 356 357 360 363 363 364 364 363 364 364 364 364 363 363 363 363 362 362 361 361 360 359 358 356 355 353 353 353
316 318 320 324 325 322 324 330 332 330 328 329 329 330 329 328 327 329 332 335 336 338 340 340 341 343 345 348 352 355 357 358 357 357 356 354 352 351 350 348 345 341 338 336 335 335 336 338 342 344 344 343 348 352 355 358 359 358 357 356 354 355 357 358 360 362 362 362 363 363 364 364 363 363 363 363 362 361 361 361 360 359 358 357 357 356 356
317 319 320 320 319 320 323 326 327 325 324 324 324 326 327 326 326 328 330 331 334 337 338 339 340 342 343 345 348 351 353 353 354 354 353 352 351 350 350 350 347 345 342 338 336 334 334 334 336 338 337 336 338 343 349 352 356 358 358 358 358 356 355 355 356 358 361 362 361 363 363 363 364 364 363 362 362 362 362 361 361 361 361 361 360 359 359
317 318 318 316 317 319 322 322 322 322 323 323 322 323 323 324 326 328 327 327 330 335 337 337 339 340 341 344 347 350 351 350 350 350 350 350 349 348 347 348 349 348 347 346 346 344 343 346 351 349 343 337 333 335 338 343 348 352 354 356 358 358 357 357 355 356 359 360 361 362 363 363 363 364 363 363 363 363 363 363 363 364 364 364 364 363 362
317 319 317 315 316 319 320 320 320 320 320 321 320 320 321 323 327 328 326 324 327 333 335 335 336 339 341 342 344 348 350 349 349 348 349 349 349 348 348 348 349 350 350 351 354 353 351 354 360 362 358 351 345 340 336 335 338 344 347 350 353 356 358 358 356 356 357 359 361 362 363 363 364 364 365 365 364 364 365 365 366 366 367 367 366 365 365
316 317 315 314 317 319 318 318 318 318 318 319 319 318 320 322 324 324 323 322 325 330 333 332 333 336 339 341 342 345 349 351 350 349 349 348 348 348 348 348 349 350 352 353 354 354 352 352 358 364 365 363 361 357 352 346 343 345 348 348 350 355 358 359 358 358 358 359 361 363 364 365 367 367 368 367 366 366 366 366 367 367 367 368 367 367 367
314 314 315 316 318 317 316 317 317 316 316 318 318 317 318 320 321 320 320 321 324 327 329 331 333 333 334 338 341 343 346 349 349 349 349 348 348 348 348 349 350 351 353 354 353 352 351 349 352 359 364 365 365 365 362 359 356 355 355 354 354 358 360 360 359 359 359 360 361 362 364 366 368 369 370 369 369 369 368 367 367 366 366 367 367 367 366
313 314 316 316 316 316 316 316 316 315 316 317 318 317 317 318 318 317 317 319 321 322 326 330 334 333 329 332 339 341 343 348 349 349 349 348 347 347 346 348 350 351 352 352 351 351 350 348 348 352 358 363 365 365 365 363 361 360 360 359 360 361 361 360 359 359 359 361 362 363 365 366 367 369 369 369 369 368 368 368 368 367 367 367 367 367 367
313 313 313 313 314 315 316 315 315 315 315 316 317 317 316 317 316 316 318 321 322 322 326 331 334 330 324 328 336 337 338 343 346 347 347 348 348 348 347 347 348 350 350 351 351 350 350 347 345 348 353 358 362 363 365 365 364 362 362 361 361 361 361 360 360 360 360 362 364 365 366 366 367 368 368 369 370 369 369 369 369 369 369 368 368 367 367
311 311 311 312 314 315 315 314 314 315 315 315 316 316 315 316 315 315 319 323 322 322 325 328 327 322 319 325 335 336 334 337 341 342 344 345 346 348 348 348 349 349 350 351 350 349 348 346 345 348 351 355 358 360 363 364 364 364 364 364 361 361 361 361 362 362 363 364 365 367 368 368 368 368 367 368 369 369 369 369 370 369 368 368 368 368 367
310 310 311 312 313 313 313 312 314 315 315 315 316 316 315 316 315 314 318 322 323 323 323 322 320 317 316 320 329 334 333 333 336 338 341 343 344 346 347 348 350 350 350 350 349 347 346 346 347 350 352 353 355 357 359 361 362 363 366 366 364 363 363 364 365 366 367 366 367 367 368 369 369 368 368 368 367 367 366 366 367 368 367 367 366 365 364
310 311 311 311 311 311 311 312 314 315 315 314 315 316 315 314 314 314 315 319 321 321 320 318 317 317 316 316 320 328 332 333 333 338 341 342 344 345 347 348 349 349 349 349 348 347 346 347 350 352 352 352 354 356 358 361 362 361 363 366 366 365 365 365 366 367 367 366 368 369 369 369 369 369 368 367 367 366 364 364 364 364 363 362 362 362 361
309 310 310 311 311 311 312 313 314 314 314 314 314 314 314 314 315 314 314 316 317 317 317 316 316 317 318 316 316 322 329 330 330 335 341 343 344 345 347 348 349 349 349 348 348 348 348 349 351 352 353 353 354 355 358 360 363 362 363 364 366 366 366 365 365 366 366 366 367 368 368 368 368 368 367 366 366 364 363 363 363 361 359 357 355 354 354
310 310 310 310 310 311 311 312 313 313 313 313 313 313 313 313 314 314 314 314 314 316 316 316 316 319 322 321 317 319 326 329 328 333 341 344 343 345 346 347 349 349 349 348 348 348 349 349 350 351 352 352 353 353 355 359 362 363 363 363 364 364 365 365 366 366 366 365 366 366 366 366 366 366 365 364 362 362 361 360 360 359 355 349 343 339 338
312 312 311 310 310 310 311 311 312 312 311 312 313 313 313 313 313 313 313 313 315 318 319 317 317 322 325 323 318 320 327 330 330 332 339 343 345 345 345 347 348 349 349 349 349 348 348 348 348 348 350 351 351 352 354 357 360 362 362 362 362 362 363 364 364 364 364 364 363 363 364 363 361 360 359 358 357 355 355 353 352 350 346 342 337 333 330
315 314 313 312 311 310 310 310 311 311 311 312 312 313 313 313 313 313 312 312 315 320 321 320 321 324 326 323 320 323 330 333 333 334 337 341 344 344 345 346 348 348 348 349 348 347 347 346 346 346 348 350 350 351 352 354 356 358 359 359 360 361 362 362 362 362 362 361 360 359 359 359 357 355 354 351 349 347 345 342 341 340 336 334 332 329 328
316 314 313 312 311 310 310 310 311 311 311 312 313 313 314 313 313 313 313 313 317 321 322 321 324 327 327 325 324 327 332 335 335 336 338 340 342 344 345 346 347 347 347 347 347 347 346 346 346 346 347 348 349 350 351 352 354 354 355 355 356 356 357 358 359 359 358 358 357 356 354 352 350 347 345 343 340 338 336 334 333 332 331 329 329 328 328
314 313 312 311 311 310 311 311 311 311 311 312 313 313 314 314 313 314 314 315 319 322 322 322 326 330 331 328 328 330 332 333 333 335 338 340 342 345 346 345 346 346 346 346 347 346 345 346 346 346 346 346 348 349 348 349 351 352 351 350 351 350 350 351 352 351 349 349 350 348 346 344 342 341 340 338 336 334 332 331 330 330 330 329 329 330 331
313 312 312 311 311 311 311 311 311 312 312 312 312 313 314 314 314 316 318 320 321 321 322 325 328 331 331 331 331 332 333 333 334 336 338 340 343 344 345 344 344 343 343 343 345 345 344 343 344 346 347 346 346 347 347 347 347 349 348 347 347 347 346 346 346 345 343 342 344 344 343 342 341 340 339 338 336 335 333 333 333 332 332 331 331 332 332
314 313 313 312 311 311 311 311 312 312 312 312 313 314 315 315 316 319 322 322 321 322 325 328 329 330 330 331 332 333 335 336 336 337 338 340 341 342 342 341 341 340 340 341 342 342 342 341 342 344 346 346 345 345 344 343 344 345 346 345 344 345 344 344 344 343 342 341 340 340 339 338 338 338 338 337 337 336 335 335 335 334 333 333 333 333 333
316 316 315 313 312 312 311 311 311 312 313 314 315 316 317 319 321 322 323 321 321 323 326 327 328 329 330 331 331 332 334 334 335 335 335 336 338 339 339 339 339 339 339 340 341 341 341 342 342 343 344 344 343 342 342 342 342 343 342 343 343 342 342 342 341 341 340 339 338 337 336 336 337 338 338 337 337 337 336 335 335 334 334 334 334 334 334
314 317 317 316 316 315 315 314 314 315 316 317 318 319 320 321 321 321 321 321 322 324 324 325 327 328 328 328 328 328 328 328 330 331 331 331 333 335 336 336 336 337 339 339 340 340 341 341 342 342 342 342 342 342 341 342 341 341 340 341 341 340 340 340 340 339 339 338 337 336 335 335 336 337 337 337 337 337 336 335 335 335 334 334 334 334 333
311 314 316 317 317 317 317 317 317 317 317 318 318 319 319 319 318 318 318 320 322 322 321 323 326 326 324 324 324 323 323 324 326 327 327 327 329 332 334 334 334 335 337 336 336 336 338 339 339 340 340 341 341 341 341 340 340 339 339 339 339 339 339 338 338 337 337 336 336 335 334 335 336 336 337 336 336 336 336 336 335 335 334 334 334 334 333
309 310 312 314 314 315 315 314 314 314 315 315 315 315 315 315 315 314 315 317 318 318 318 319 321 321 320 321 321 321 320 321 322 323 324 325 327 331 331 329 328 329 330 329 330 332 334 336 337 337 337 338 339 340 340 339 338 338 337 337 337 337 337 337 337 337 336 336 335 335 335 335 335 336 335 336 335 336 335 335 335 335 334 334 334 334 333
307 308 310 311 311 312 313 313 313 312 312 311 311 311 311 312 312 312 312 313 314 314 314 315 317 317 317 317 317 317 317 318 319 321 321 321 323 325 324 323 322 322 323 325 328 329 329 332 333 333 332 333 334 337 338 338 337 336 337 336 336 335 335 335 335 336 335 335 335 335 335 335 335 335 335 335 334 335 334 334 334 334 334 334 334 333 333
307 307 307 309 309 310 311 311 311 312 312 311 310 310 309 309 309 310 310 311 311 312 312 313 314 314 314 314 314 314 314 315 317 317 318 318 319 319 319 319 319 320 321 323 325 325 325 327 328 328 327 327 328 331 334 337 337 337 337 336 336 335 335 334 335 335 334 334 335 335 335 334 334 334 333 334 333 334 333 333 333 333 333 332 332 332 333
307 307 307 307 308 308 309 309 309 310 310 311 311 311 311 310 310 310 309 309 309 310 310 310 311 311 311 311 311 312 313 314 315 316 317 317 316 315 315 316 317 319 321 322 322 321 321 322 322 321 321 322 323 324 327 331 334 335 335 335 335 334 333 332 332 332 332 332 332 333 332 332 332 332 331 331 331 331 331 330 330 330 329 329 329 330 331
307 307 307 307 307 307 307 308 308 308 309 309 310 310 310 311 311 312 311 311 310 309 309 309 309 309 309 309 309 310 310 311 313 314 315 315 314 313 312 312 315 317 319 320 321 321 321 320 319 318 317 316 317 318 320 323 326 328 330 331 331 330 328 327 326 326 326 327 328 327 327 327 327 327 327 326 326 327 327 327 327 326 326 326 328 328 328
307 307 307 307 307 307 306 306 307 307 308 309 309 309 309 309 309 310 311 311 311 310 310 310 309 309 309 308 308 308 308 309 310 310 310 310 310 311 311 311 312 315 317 318 319 319 319 319 319 319 318 317 317 317 318 318 320 322 323 324 324 324 324 323 322 322 321 322 322 322 322 322 322 322 322 323 323 324 324 325 325 325 325 325 326 326 326
307 307 307 307 307 307 306 306 305 305 306 307 308 308 309 309 309 308 308 309 309 309 309 309 310 310 310 309 307 307 307 308 308 309 309 308 308 308 309 309 310 311 313 314 315 316 316 317 317 317 318 318 318 318 318 318 317 317 319 320 320 320 320 320 319 319 319 319 319 320 320 320 320 320 321 321 322 322 322 323 323 323 323 323 323 323 323
307 307 307 307 307 306 306 306 306 305 305 305 306 306 308 309 309 308 308 308 308 308 308 308 308 309 310 310 309 307 306 306 307 308 309 308 307 306 307 308 308 308 309 310 311 312 312 313 313 313 315 316 317 317 317 317 315 315 314 314 314 314 315 315 316 316 316 317 317 317 317 318 318 318 319 319 320 320 320 319 319 319 320 320 320 321 321
308 307 307 307 306 306 306 306 306 305 305 305 305 305 306 307 308 308 308 308 308 309 309 308 308 307 308 309 310 309 308 306 306 306 306 306 305 305 306 307 307 307 307 308 308 308 309 309 310 311 312 313 314 315 315 315 315 314 312 310 309 309 309 309 309 310 310 311 311 312 312 313 313 314 314 315 315 315 315 316 316 316 316 317 317 318 318
307 307 307 306 306 306 306 306 306 305 305 305 305 305 305 306 307 307 308 308 308 308 309 308 308 308 308 308 308 308 308 308 307 306 306 306 305 305 305 305 306 306 307 306 306 306 307 308 308 309 309 310 311 311 311 312 312 312 311 309 308 308 307 307 307 307 307 307 307 307 307 308 308 308 309 309 309 309 310 310 311 311 311 312 313 313 313
306 305 305 305 305 305 305 305 305 305 305 305 305 305 305 305 306 307 307 307 307 308 308 309 309 309 309 308 308 307 307 307 307 307 307 306 306 306 305 305 305 305 305 305 305 305 305 306 307 307 307 308 308 309 309 309 309 309 308 308 308 308 307 307 307 306 306 306 306 306 306 306 306 306 306 306 306 306 306 306 306 306 306 307 307 307 307
305 305 304 304 304 304 305 305 305 304 303 304 305 305 304 305 305 306 306 307 307 307 308 308 308 309 309 308 308 308 308 307 307 307 306 306 306 306 306 305 305 304 304 304 304 304 304 305 305 306 306 306 306 307 307 307 307 307 307 307 307 307 307 307 306 306 306 306 306 305 305 305 304 305 305 305 305 305 305 305 305 304 304 304 304 304 303
304 304 304 303 304 303 303 303 304 303 303 303 303 304 304 304 303 304 305 306 306 306 306 306 307 307 307 307 307 308 308 308 307 307 307 306 306 306 306 306 305 305 305 305 304 304 304 304 305 305 305 305 305 305 306 306 306 306 306 306 306 306 306 306 306 306 305 305 305 305 305 304 304 304 304 303 303 303 303 303 303 303 303 303 302 302 302
304 304 303 303 303 303 303 303 303 303 302 302 302 303 304 303 303 302 303 303 304 304 304 304 304 305 305 306 306 306 307 307 307 307 306 306 306 306 306 306 305 305 305 305 305 305 304 304 304 305 305 305 305 305 305 305 305 305 305 305 305 305 305 305 305 305 305 304 304 304 304 303 303 303 303 303 302 302 302 302 302 302 301 301 301 300 300
303 303 303 303 302 302 302 303 303 302 302 302 302 302 303 303 302 302 301 301 302 303 303 303 303 303 304 304 305 305 306 305 305 305 305 305 305 305 304 305 305 305 305 305 304 304 304 304 304 304 304 304 304 303 303 303 304 304 304 304 304 304 303 303 303 303 303 303 303 303 303 302 302 302 302 301 301 301 301 301 301 300 300 300 300 299 299
Wind_Speed
19 17 16 15 13 12 12 10 10 12 18 18 13 9 8 8 8 7 8 9 13 10 6 8 9 6 8 11 18 24 29 32 35 37 39 39 40 42 43 45 47 49 50 50 50 50 50 50 50 50 50 50 51 50 50 49 49 49 49 48 48 48 48 48 48 46 45 43 42 42 43 44 45 45 45 44 43 43 42 42 42 41 40 39 38 38 37
19 16 13 11 10 9 9 9 8 7 12 19 15 10 9 8 8 8 7 10 13 10 7 8 7 6 8 12 20 26 28 30 33 34 36 37 40 42 43 44 46 48 49 50 51 50 50 50 50 50 49 50 50 50 49 49 48 48 47 47 47 47 47 47 47 46 45 44 43 43 43 44 45 46 46 45 45 44 43 43 42 42 41 41 41 40 39
13 11 10 13 13 10 9 9 7 6 4 12 15 11 8 5 6 6 7 8 10 8 3 3 2 7 10 9 12 19 26 32 33 33 36 38 40 42 44 46 46 46 47 48 49 50 51 51 51 50 49 49 49 49 48 48 47 47 46 47 47 47 47 46 45 45 45 45 44 44 44 44 45 46 46 46 46 46 45 44 43 42 42 43 42 42 41
7 8 12 16 16 11 8 6 7 8 4 5 10 9 8 6 6 5 6 6 7 7 1 3 4 7 9 7 5 13 23 31 34 33 35 38 41 43 45 46 45 45 44 44 47 49 50 51 50 49 48 48 48 48 48 47 46 45 46 46 47 46 45 44 44 44 44 44 45 45 45 45 45 46 46 47 47 47 47 46 44 43 43 43 43 42 42
7 9 15 16 11 6 3 3 8 10 4 2 2 0 2 1 2 5 6 6 7 5 1 6 7 7 8 6 4 11 22 29 34 37 37 37 40 43 45 46 44 43 44 44 47 49 49 49 48 47 47 46 47 47 46 46 45 45 45 45 46 45 44 43 43 43 43 43 44 45 45 46 46 46 47 48 48 48 48 47 45 45 44 44 44 43 43
7 12 16 12 3 1 2 1 10 14 8 12 16 10 9 11 9 2 3 5 5 4 3 8 11 9 9 10 7 11 24 31 32 35 37 38 38 40 43 44 43 43 43 43 45 47 46 45 43 43 44 44 45 45 45 45 45 45 45 45 45 45 44 43 42 41 41 41 41 42 42 44 45 46 47 48 48 48 47 47 47 46 46 45 45 45 44
6 9 8 3 6 3 5 5 12 15 10 11 17 17 19 21 17 13 11 8 1 7 6 9 15 16 17 21 18 10 18 28 30 30 32 34 35 36 39 40 40 42 42 43 43 43 42 40 39 40 41 42 43 44 45 46 46 46 46 45 45 45 44 43 42 41 41 40 39 39 39 41 43 45 46 47 48 48 47 47 48 47 46 46 46 46 45
4 5 4 3 6 5 11 11 14 16 14 11 11 16 19 19 16 13 12 12 8 2 8 12 19 23 27 27 24 17 13 22 26 27 28 30 33 35 37 39 40 41 42 43 42 41 39 39 38 39 40 41 42 42 43 44 45 45 46 46 46 46 45 44 42 41 41 40 39 38 37 39 41 42 44 45 46 47 47 47 47 47 47 47 46 46 46
1 3 5 3 3 8 9 10 13 13 11 11 6 8 10 13 15 13 12 13 13 7 4 9 19 29 28 19 18 19 16 20 22 23 24 25 29 31 34 37 38 40 41 41 41 40 39 38 38 38 39 40 41 40 40 42 43 44 45 46 46 46 46 45 43 42 41 40 39 38 38 39 40 40 41 42 43 45 46 47 47 47 47 47 46 46 46
2 3 4 4 4 2 4 11 17 16 13 13 8 3 7 11 16 17 14 13 13 11 9 4 9 24 20 7 9 17 18 21 23 24 24 23 24 24 26 30 31 33 33 32 32 32 32 33 34 35 37 39 39 39 39 40 41 42 44 45 46 47 46 45 43 42 41 41 40 39 39 39 39 38 39 40 41 42 44 46 46 47 46 46 46 46 46
3 3 2 4 1 1 8 16 19 23 26 18 8 3 8 10 17 20 16 14 13 12 13 11 8 16 12 3 6 13 20 26 27 27 28 27 25 23 22 23 24 24 23 22 23 23 23 24 25 27 30 33 36 37 38 38 39 41 44 45 45 46 46 44 43 42 41 41 40 40 39 38 38 37 37 38 38 40 41 43 44 45 46 47 47 46 46
3 3 1 3 2 1 11 17 18 28 32 16 2 6 5 9 17 21 16 14 15 16 17 16 12 10 6 4 7 14 25 32 32 30 30 28 26 25 23 22 23 24 24 23 23 21 20 20 20 21 23 26 29 33 35 36 38 40 41 42 42 43 44 43 43 42 42 41 41 40 40 38 37 36 36 36 37 39 40 41 42 43 45 46 47 47 46
3 3 2 2 2 2 11 17 22 29 24 7 8 6 2 9 15 19 19 18 19 23 22 18 14 12 12 11 15 23 30 34 34 32 31 29 27 25 23 20 20 22 23 23 22 20 18 18 19 21 23 24 26 27 29 32 35 37 37 38 38 40 42 42 43 42 42 41 41 40 39 37 37 37 37 37 38 38 39 39 40 41 43 45 46 46 45
1 2 3 3 0 6 14 19 23 24 11 4 5 4 4 10 14 17 23 24 23 26 26 24 22 23 24 21 22 28 31 31 31 28 27 27 25 22 20 19 17 16 16 17 17 16 14 14 15 18 21 24 25 26 28 29 29 29 31 33 35 37 39 40 41 42 42 42 41 39 38 37 37 38 38 38 38 38 38 39 39 40 41 42 43 44 44
1 3 2 2 1 7 17 16 13 15 8 2 5 6 8 14 18 19 23 27 27 27 27 27 29 31 32 29 26 29 30 29 27 25 24 24 22 20 19 17 15 13 10 7 7 7 8 9 11 14 17 21 23 26 29 28 27 27 27 27 29 32 35 37 38 39 40 40 40 39 38 38 38 38 38 39 39 39 38 38 39 39 40 40 41 42 42
1 2 0 3 1 4 13 11 6 7 11 13 12 9 11 18 21 22 24 26 29 30 27 27 31 32 33 32 28 27 29 28 26 25 23 22 21 19 18 17 15 13 9 6 3 1 4 6 9 12 15 19 21 24 26 27 27 29 28 27 26 27 30 32 34 35 35 35 36 36 37 37 37 38 39 39 40 39 39 38 38 38 38 38 38 39 39
1 3 2 4 5 3 13 16 11 12 17 21 21 18 18 21 22 24 26 26 29 31 29 29 31 32 32 32 30 27 27 27 25 24 22 21 19 17 16 15 13 11 10 7 5 3 3 6 7 8 12 17 21 24 25 24 25 27 28 29 29 28 28 28 30 32 32 32 32 33 34 35 36 37 38 39 40 40 38 37 37 36 36 35 35 36 36
4 5 4 8 10 7 14 17 17 16 15 19 24 24 22 22 22 24 26 27 28 30 30 30 30 31 31 31 30 28 25 24 24 23 21 20 19 18 16 14 11 9 7 6 6 5 4 5 7 7 8 11 16 22 25 25 25 25 25 26 28 30 30 29 28 28 30 30 30 31 32 33 34 35 36 37 38 38 37 36 35 34 33 33 33 33 33
4 3 6 12 9 9 14 16 18 19 16 15 20 23 22 22 23 24 25 25 25 26 28 28 28 29 29 30 29 28 25 23 23 23 22 20 19 19 17 14 11 8 5 4 5 5 4 4 5 6 6 7 11 16 21 24 24 24 23 24 24 26 29 30 29 28 28 29 29 29 30 31 32 34 35 35 36 37 36 35 34 32 32 31 31 31 31
1 2 10 15 6 10 16 15 16 18 18 14 14 19 20 21 23 24 24 24 23 24 25 26 25 26 27 28 28 27 25 22 20 21 21 20 19 18 17 14 12 9 7 5 6 8 8 6 5 6 5 6 8 11 15 19 20 20 20 20 21 22 25 28 29 28 28 28 29 29 30 32 33 34 34 34 35 34 33 32 31 30 30 30 29 28 28
3 4 9 10 5 7 12 15 14 15 16 13 11 15 17 18 21 23 23 22 22 22 22 22 23 23 24 24 24 23 23 22 20 19 19 19 18 18 17 15 12 10 8 7 9 10 11 10 8 7 7 7 8 9 11 14 16 15 15 16 17 19 22 26 27 26 27 29 29 30 31 33 34 34 33 32 32 30 29 28 27 26 26 26 26 26 26
3 3 4 7 5 4 7 12 14 13 12 12 10 11 14 17 19 21 21 21 22 21 20 20 20 21 21 20 20 19 19 19 18 18 17 17 17 17 16 14 12 11 10 9 9 9 11 13 12 10 10 10 10 11 11 12 13 14 14 15 17 19 22 25 25 26 27 29 30 31 32 34 34 33 31 30 29 27 26 25 25 25 24 23 24 24 25
4 8 12 14 9 5 8 13 15 12 10 9 9 11 13 15 17 20 20 19 20 20 19 18 17 17 19 18 16 15 15 15 14 15 15 17 17 17 16 15 13 12 10 9 9 8 10 16 16 11 11 12 12 12 12 12 13 14 14 16 18 20 22 24 25 26 28 30 31 32 33 33 32 31 30 28 27 26 26 26 25 24 24 24 24 24 24
11 18 22 18 11 8 13 19 18 13 9 8 9 11 12 13 17 19 18 17 18 18 17 16 16 17 18 17 15 14 15 14 13 13 14 14 15 15 15 14 12 11 9 9 9 9 11 16 16 11 11 12 12 13 13 14 14 13 14 16 18 20 22 23 25 27 29 30 31 31 32 31 30 29 28 27 26 25 24 25 25 24 23 23 23 22 21
20 25 27 23 17 17 21 24 19 11 6 7 8 9 10 12 14 16 16 17 17 16 17 19 20 19 19 17 15 14 14 13 12 12 12 12 12 13 14 13 12 11 11 10 9 9 12 15 13 11 11 12 13 13 13 15 17 16 16 17 18 20 22 24 25 27 28 29 30 30 30 30 29 28 27 27 26 23 21 20 21 21 20 20 19 19 18
30 32 31 28 26 26 26 22 15 8 4 7 8 8 9 12 13 13 14 16 16 17 20 22 22 20 19 17 15 14 14 13 12 10 10 11 12 13 13 13 12 11 10 9 8 8 10 11 10 8 9 11 11 12 12 13 17 19 19 19 20 21 23 25 26 26 26 27 28 29 30 29 28 27 26 26 25 24 22 21 20 20 20 19 18 18 19
35 34 29 24 24 25 22 17 12 8 8 11 12 11 11 12 11 11 13 14 15 17 20 21 21 20 18 16 14 12 12 13 13 10 8 9 11 12 12 11 10 9 8 7 7 7 8 8 7 6 8 8 7 8 9 11 15 18 19 20 21 22 23 24 25 25 25 25 26 28 29 28 27 27 26 25 24 24 23 23 23 22 22 21 19 16 15
35 35 30 25 26 26 21 17 15 14 15 17 17 16 15 14 13 13 15 16 15 16 18 20 20 18 16 15 13 12 11 12 13 11 9 7 8 10 10 9 7 6 7 8 8 7 8 8 7 7 7 6 5 6 8 10 14 17 18 19 20 21 22 23 24 24 24 25 27 29 29 28 28 27 26 25 25 24 24 24 23 23 22 20 18 16 14
31 35 35 35 37 35 28 24 25 25 23 22 21 19 18 18 17 17 17 18 17 16 17 19 19 15 13 13 13 11 10 10 11 11 9 8 8 9 11 9 7 7 8 10 9 8 8 8 8 8 8 7 7 7 8 10 14 17 17 18 20 21 22 23 24 24 25 26 28 29 28 27 27 26 25 25 25 24 24 23 22 21 20 18 17 17 15
22 28 33 38 38 33 29 29 30 29 26 24 22 20 18 17 18 19 20 20 19 18 18 20 18 14 12 11 10 9 8 9 10 10 10 10 9 10 12 11 9 8 9 10 10 10 9 8 8 8 8 8 9 9 8 10 14 17 19 20 20 21 23 24 24 26 27 27 27 27 26 25 25 26 26 25 24 23 23 22 20 19 18 17 16 16 16
17 19 26 33 33 29 26 26 26 24 23 20 17 16 15 14 14 16 18 20 20 19 19 20 16 11 9 9 7 6 6 7 8 10 11 11 11 10 11 11 10 10 11 11 11 11 11 9 8 7 8 8 9 9 9 10 13 16 19 21 22 23 24 25 25 26 28 29 29 28 28 28 28 28 27 26 25 23 23 22 21 19 18 17 15 14 13
12 11 16 22 26 26 25 22 20 21 22 19 15 14 13 12 12 13 15 17 18 19 20 18 11 6 6 7 6 5 6 7 8 9 9 10 10 9 9 10 9 9 10 11 12 12 12 10 9 8 8 8 9 9 9 10 12 15 20 23 25 26 28 28 28 28 29 30 30 30 29 30 29 28 27 27 26 25 24 23 22 20 19 17 15 14 11
7 5 9 14 18 21 21 17 15 16 17 16 15 13 12 12 12 11 11 13 15 17 16 11 4 2 4 5 4 4 4 6 6 6 5 6 7 7 7 7 8 8 8 8 10 11 10 10 9 9 9 9 10 10 10 10 12 16 21 25 28 30 30 31 32 32 33 33 32 31 30 29 27 26 25 25 24 24 23 21 20 19 18 17 16 14 12
6 5 7 11 15 17 16 12 9 10 11 11 11 11 10 10 10 9 8 9 12 13 7 1 2 1 3 2 3 4 5 5 3 4 5 6 8 9 9 11 13 14 13 12 11 11 9 8 9 11 12 13 13 13 11 12 16 21 24 27 28 30 31 32 33 34 34 33 33 32 31 29 28 27 26 26 25 24 22 21 20 19 19 18 17 15 14
12 6 4 5 8 12 11 7 5 6 6 6 7 7 7 5 4 4 4 5 6 2 6 10 7 3 2 4 7 10 10 10 10 10 11 12 13 14 15 17 18 17 16 15 14 12 11 11 11 12 14 15 16 16 16 18 21 25 28 30 30 31 32 32 33 34 34 33 33 32 32 31 30 30 29 28 27 25 23 21 20 18 18 18 17 16 15
28 19 15 13 10 8 7 6 4 3 2 3 3 3 3 3 5 5 4 4 6 11 17 16 11 7 8 12 15 18 20 19 18 17 17 17 18 19 20 20 19 19 19 18 16 15 14 14 14 16 18 19 20 20 21 22 23 25 28 30 31 32 33 34 34 35 35 34 32 31 31 31 30 30 29 28 27 26 23 21 18 16 16 17 16 15 14
43 36 33 32 28 23 21 19 15 13 13 12 12 11 11 11 13 14 14 15 16 19 22 20 16 14 17 21 23 24 25 24 23 22 22 22 21 22 23 22 20 21 21 18 16 17 18 17 18 19 21 23 24 24 23 23 24 25 26 27 28 29 30 31 32 33 32 31 30 30 30 30 30 29 28 27 26 25 22 20 18 17 16 16 15 13 12
50 47 46 45 42 38 37 36 32 28 26 25 23 22 21 20 20 20 21 23 25 26 27 26 24 25 27 28 28 28 29 28 27 27 27 26 24 25 24 23 22 22 21 17 15 18 21 23 24 25 24 23 26 27 26 25 25 26 26 27 27 28 28 28 29 30 30 29 29 29 28 28 27 27 26 26 25 23 21 20 19 17 15 14 12 11 11
50 50 48 48 47 46 45 43 40 38 36 36 34 32 30 28 27 26 26 28 29 30 32 33 33 33 33 33 33 33 33 32 32 32 32 31 30 29 29 28 27 24 21 17 18 20 24 27 29 30 28 27 27 28 29 29 27 26 26 26 25 25 25 25 26 27 27 27 27 26 26 25 25 25 25 24 23 22 20 19 17 16 15 13 11 10 11
44 46 46 47 47 47 45 43 41 40 39 39 38 37 35 34 33 32 32 33 33 33 35 38 38 37 37 37 38 37 37 36 37 36 36 36 36 36 36 34 30 24 20 18 19 21 24 28 31 29 28 29 30 30 31 32 31 29 28 27 24 23 21 21 21 22 23 23 23 23 23 23 23 23 22 21 20 19 18 17 16 15 13 11 11 10 11
37 39 42 43 44 43 42 42 41 39 38 37 36 34 34 33 32 32 34 35 36 36 37 39 40 40 40 39 40 40 40 39 39 39 38 38 38 38 38 36 31 27 22 20 20 21 23 26 29 28 26 26 28 30 32 33 33 33 32 29 26 23 20 17 16 17 18 18 19 20 20 20 20 19 18 17 16 15 15 14 13 11 10 10 10 10 9
32 33 35 36 36 37 37 37 37 36 36 35 33 31 31 30 29 29 31 32 33 35 36 36 37 37 36 36 38 40 41 41 40 39 39 39 38 38 36 34 31 28 26 25 24 23 23 23 25 26 27 28 28 29 31 33 33 33 32 29 26 22 19 17 16 17 17 18 18 18 17 17 17 16 15 14 13 12 11 10 9 9 9 10 10 9 8
28 29 30 30 30 30 31 31 32 33 34 33 31 29 29 29 29 29 31 31 32 33 34 34 34 34 33 33 33 35 36 37 38 39 39 38 36 34 33 32 30 28 27 28 29 28 26 25 24 23 23 25 27 30 32 32 32 31 30 28 26 24 21 20 21 21 21 21 21 21 20 19 18 17 17 16 15 14 13 12 11 11 10 10 9 8 7
25 26 26 26 26 26 27 26 26 27 29 29 28 27 27 28 28 29 30 30 31 31 32 32 33 33 33 34 34 33 31 30 30 31 34 36 35 31 28 27 28 28 29 30 31 31 29 27 25 22 21 21 23 26 29 32 34 35 34 32 30 29 27 26 25 25 24 24 24 23 22 21 20 19 18 18 17 15 14 13 13 12 11 10 8 7 6
21 22 22 23 23 24 24 24 24 24 23 24 24 24 25 26 27 27 28 28 29 29 30 30 30 29 30 31 33 34 34 33 30 28 29 33 34 30 24 22 23 25 27 28 30 31 29 26 24 23 22 22 22 23 26 29 32 35 37 37 36 34 33 31 29 28 27 25 24 23 22 21 21 20 19 18 17 16 15 15 14 12 11 10 9 8 7
20 20 20 21 21 22 21 21 21 21 22 23 23 22 21 22 23 25 26 27 26 26 26 26 27 27 27 27 27 29 32 34 34 32 30 31 30 27 23 22 22 22 22 24 26 26 26 25 24 23 22 21 21 22 23 24 24 27 31 33 34 34 34 32 30 29 28 26 25 24 23 22 21 20 19 18 18 17 16 15 15 14 12 11 11 10 8
19 20 20 19 19 19 18 18 18 18 19 21 22 21 19 18 18 20 21 22 22 23 24 24 24 24 24 25 25 25 27 30 31 31 30 30 28 24 22 22 21 20 21 22 23 23 21 21 21 20 19 19 19 20 21 21 21 22 24 26 27 28 28 28 28 27 26 25 24 23 22 21 20 19 18 18 17 17 15 14 14 13 12 11 10 10 8
19 19 20 19 18 17 17 17 18 18 18 17 17 17 17 16 15 16 17 17 17 18 19 21 22 22 22 23 23 22 23 26 29 29 27 27 26 24 21 20 19 19 19 21 21 21 20 19 18 16 16 15 15 16 16 17 17 17 18 19 20 21 22 22 22 22 22 21 21 20 20 19 18 16 16 15 15 14 14 13 13 13 12 10 9 9 8
18 18 18 18 17 17 16 16 17 17 17 15 14 14 15 15 15 15 15 16 16 16 17 18 20 21 22 22 22 21 21 22 24 24 22 22 22 22 22 21 20 19 19 19 20 19 17 16 16 16 16 15 15 15 14 14 14 14 15 15 16 17 17 17 17 17 17 18 18 17 17 17 16 15 14 13 12 11 11 12 12 12 11 9 9 8 8
17 18 18 19 17 15 14 14 15 15 16 16 15 14 15 16 16 15 14 14 15 17 18 19 20 21 21 22 22 22 21 21 21 20 19 18 19 20 21 21 20 20 20 20 21 20 18 17 18 19 19 19 19 19 18 18 19 19 18 18 19 19 19 19 18 17 17 16 16 15 15 15 14 13 13 12 11 10 11 11 11 10 10 10 10 10 10
14 14 16 18 19 17 14 12 12 13 15 16 16 15 16 17 18 17 15 14 14 16 18 20 20 21 21 22 22 21 20 19 19 18 17 17 17 17 17 17 18 18 18 18 19 19 19 19 18 18 17 18 18 18 18 18 19 19 18 18 18 18 18 18 18 17 16 15 14 14 13 13 12 12 12 11 10 9 10 9 9 9 10 10 11 13 13
14 13 12 14 17 18 17 14 12 12 13 15 16 16 16 17 17 18 17 17 16 16 18 19 20 20 21 21 22 22 21 19 18 18 17 16 16 15 14 14 14 15 16 16 16 16 16 16 16 15 15 14 14 14 15 16 17 17 17 17 17 16 16 16 16 15 15 13 13 13 13 12 12 12 11 10 8 7 6 6 7 8 9 10 11 13 14
Wind_Direction
300 288 281 271 269 265 255 274 284 231 195 184 185 192 192 162 157 210 226 207 222 240 240 248 250 195 164 167 171 175 176 178 179 180 181 183 185 188 190 192 194 196 196 197 199 200 202 203 204 206 207 209 210 211 212 213 214 215 216 216 218 219 221 224 226 227 228 229 231 232 233 233 234 233 233 233 233 232 232 231 232 232 234 235 235 236 237
298 288 290 293 301 300 277 274 295 276 215 197 189 185 187 181 187 200 185 192 222 232 215 229 239 194 163 159 167 172 172 175 178 178 179 182 184 187 191 193 195 197 198 199 200 201 202 203 204 205 206 208 209 211 212 213 214 215 215 217 218 219 221 225 228 228 229 230 231 232 232 233 234 234 233 233 233 234 234 234 234 234 234 235 236 237 238
293 289 309 325 326 317 297 286 302 333 266 208 196 185 184 192 211 204 163 177 231 253 227 231 201 132 115 119 156 168 173 176 177 179 181 184 185 188 192 195 197 199 200 200 201 201 202 204 205 205 207 208 209 211 212 213 214 214 215 217 219 222 224 227 229 230 230 231 231 232 233 234 235 235 234 233 233 234 235 235 235 235 235 235 236 238 239
286 306 336 331 319 310 311 321 340 7 32 208 210 191 173 178 205 191 142 165 233 258 269 57 67 98 94 79 130 167 175 177 176 181 185 186 187 190 194 197 197 198 199 201 201 202 203 205 205 206 208 208 208 210 211 213 214 214 216 218 220 223 226 228 229 230 231 231 232 233 234 234 235 235 234 233 233 233 235 235 236 237 237 237 237 238 240
283 309 324 317 314 329 334 351 359 355 359 53 19 5 156 138 191 172 170 201 222 235 174 106 86 75 86 85 106 166 178 179 178 182 187 188 190 193 195 198 198 197 200 202 204 205 205 206 207 209 210 209 210 211 212 212 214 215 216 219 221 224 227 228 230 231 232 233 233 233 234 235 235 235 234 234 234 233 234 235 236 237 238 238 238 238 239
286 303 311 307 309 83 246 309 17 5 18 73 69 52 30 20 12 357 243 233 190 158 158 132 116 98 91 85 88 154 176 183 182 182 186 190 193 196 197 198 198 198 201 204 207 208 208 209 212 212 213 215 216 216 214 214 215 216 217 219 222 224 227 228 230 232 233 233 234 235 236 236 235 234 235 235 235 234 234 234 235 237 239 239 240 240 240
279 301 317 276 189 214 297 351 24 16 21 71 72 54 35 25 13 360 345 329 207 159 156 123 113 104 86 69 55 85 160 176 181 180 183 188 193 196 197 198 198 199 202 205 207 210 211 213 213 213 215 217 218 217 216 215 216 216 218 220 222 225 227 229 231 232 232 233 234 236 236 236 236 236 236 237 236 235 234 234 236 238 239 240 241 241 242
279 322 329 206 205 309 346 6 13 10 2 355 26 46 34 17 7 360 356 350 338 184 148 125 112 97 79 65 48 47 109 148 161 166 173 184 191 195 198 199 199 201 205 208 210 212 213 213 212 212 214 216 217 216 216 216 216 217 218 220 222 225 227 229 230 232 233 233 234 236 236 236 236 237 238 238 238 237 235 235 237 238 239 240 242 242 243
291 332 295 272 331 341 353 0 347 350 347 319 328 60 40 8 4 0 4 3 349 351 97 131 112 88 72 57 35 35 74 116 131 139 152 171 184 190 196 200 202 205 208 212 213 212 212 212 212 214 214 215 217 217 217 217 217 218 219 220 222 224 227 229 230 232 233 234 235 236 236 236 237 238 239 240 239 238 236 236 237 238 239 241 242 243 244
356 358 312 329 5 350 338 334 323 323 319 291 271 72 42 10 2 357 3 9 357 5 11 346 94 82 69 43 13 28 61 98 111 115 122 139 156 168 182 190 196 202 205 208 210 211 213 215 217 219 219 219 220 220 220 220 220 220 221 222 224 225 226 229 231 232 234 235 236 237 237 238 239 240 241 241 240 239 238 238 238 239 240 241 242 243 244
326 350 325 321 318 155 335 328 318 320 318 294 249 75 35 3 350 350 1 11 5 15 19 8 55 80 75 58 15 33 65 89 101 105 107 114 124 134 150 165 172 180 183 186 190 195 201 206 211 218 222 224 225 225 226 225 224 224 225 226 227 227 228 230 231 233 235 236 236 237 238 240 242 243 243 243 242 241 241 241 241 241 240 240 242 244 245
288 296 282 303 261 298 329 321 311 315 316 309 147 83 22 338 339 347 360 16 15 16 27 38 54 71 83 97 67 63 77 85 90 96 98 101 107 112 121 135 147 155 160 164 167 169 176 186 194 204 212 218 223 226 227 227 226 228 230 230 231 231 231 232 233 234 235 236 237 238 239 241 243 244 245 244 243 242 242 243 243 243 241 241 242 244 246
270 281 288 290 252 337 326 310 309 316 318 344 82 80 331 323 342 359 10 20 25 24 32 46 49 45 59 82 85 81 82 82 81 84 89 92 96 98 101 111 128 143 151 158 161 162 167 178 189 197 204 210 217 221 224 225 228 231 233 233 234 233 233 233 234 234 235 236 237 239 240 242 243 243 244 244 243 243 242 243 244 244 243 243 243 245 246
258 265 288 286 260 5 335 314 322 338 351 86 67 29 15 357 359 16 23 24 29 31 37 45 47 47 54 64 75 79 81 80 78 77 79 80 81 82 84 93 107 121 136 152 164 170 173 179 187 194 200 206 211 217 221 225 230 234 236 236 236 235 234 234 234 235 236 236 237 237 238 239 240 241 242 243 243 244 243 243 243 244 244 244 244 246 247
173 209 277 346 60 350 338 329 342 5 22 41 336 345 34 26 17 23 28 28 30 33 36 40 43 47 50 54 63 72 76 77 74 70 69 68 66 65 67 72 77 82 95 123 156 181 193 197 200 202 205 206 208 214 220 225 229 232 234 237 238 238 237 236 235 235 236 236 236 235 235 235 236 238 240 241 242 242 242 242 243 243 244 245 245 246 247
43 189 36 40 169 341 4 17 34 23 20 21 11 11 35 32 24 25 28 27 30 34 36 38 40 42 44 46 51 62 70 73 71 68 66 62 58 55 52 51 51 51 55 62 68 211 227 225 220 219 220 218 217 218 221 224 227 229 230 232 235 239 240 240 239 237 236 235 235 234 234 233 233 235 237 239 240 241 242 242 242 242 244 244 245 246 247
308 252 287 323 293 354 54 62 57 33 28 31 31 30 34 31 26 28 29 26 27 32 35 36 38 38 39 41 43 52 63 68 67 66 62 55 51 47 42 42 40 33 30 29 17 346 295 270 258 244 234 229 228 229 229 229 229 230 230 230 231 235 239 241 241 240 237 235 234 233 233 232 231 232 234 236 238 239 240 240 241 242 243 244 245 246 246
283 273 311 335 332 17 71 77 65 47 33 30 29 28 29 30 30 33 33 28 28 31 33 34 35 33 34 37 40 46 54 56 54 55 54 50 46 41 38 39 38 32 24 11 357 346 311 275 273 274 258 241 235 236 237 237 236 234 233 231 231 232 235 238 240 240 238 236 233 231 232 232 232 233 233 235 236 237 238 238 239 241 242 243 244 244 244
314 315 332 333 346 50 70 72 68 56 41 31 27 23 24 30 33 34 30 28 32 35 33 31 31 31 32 34 36 40 44 43 40 41 44 44 40 36 33 32 32 34 26 2 349 344 327 289 274 280 274 256 247 242 241 241 242 241 239 235 232 231 232 235 236 237 238 236 231 228 228 230 231 232 233 234 235 235 236 236 236 238 239 240 241 242 242
299 279 300 308 336 67 59 56 61 52 43 34 15 10 18 31 36 32 24 22 29 36 35 32 31 31 31 30 31 36 41 43 41 39 39 38 34 30 28 25 25 27 20 4 352 345 338 319 288 280 273 255 250 250 247 246 246 245 243 238 233 230 230 231 232 233 235 234 229 225 224 224 225 226 227 230 232 234 235 236 237 238 239 239 240 240 239
301 270 292 317 1 44 30 32 38 36 39 42 17 358 3 18 28 28 21 17 21 29 34 33 31 31 29 25 25 31 37 41 42 38 33 31 29 26 23 20 20 22 19 8 354 345 339 327 301 279 270 257 245 243 248 249 248 246 243 237 231 227 227 227 227 227 228 228 226 223 221 220 219 219 220 223 227 231 234 237 239 241 241 241 239 236 235
283 238 296 341 349 299 327 1 8 6 19 40 40 14 359 360 9 15 14 11 12 20 30 33 29 28 26 21 19 23 29 33 35 32 28 25 23 22 21 18 13 11 11 4 353 344 334 327 313 283 266 265 253 242 242 242 241 239 235 229 224 222 223 223 220 220 222 222 221 221 220 219 217 215 215 218 222 227 231 234 237 238 239 238 237 234 232
273 279 298 318 325 293 307 335 343 344 354 15 33 28 7 351 353 2 10 11 10 13 22 29 27 23 21 19 16 15 18 21 22 22 22 20 19 17 16 14 8 5 2 352 343 335 328 329 322 294 269 269 262 249 243 240 236 231 227 225 221 218 218 218 216 216 217 216 216 216 216 216 216 214 213 214 217 222 227 229 230 231 232 232 231 230 228
284 288 291 300 312 308 308 316 322 328 342 357 12 19 10 353 348 354 3 10 10 8 9 12 13 11 12 17 18 11 7 7 6 7 10 15 18 16 11 10 6 358 352 345 339 336 331 328 319 293 275 279 276 263 250 242 237 229 223 223 220 215 213 213 213 213 213 212 211 212 211 212 213 214 213 213 211 212 216 219 220 220 222 224 224 220 218
277 280 281 285 292 294 298 303 304 305 333 5 16 22 19 7 354 349 354 4 9 6 359 356 359 1 4 11 17 11 2 357 355 353 353 2 13 14 8 6 1 351 345 343 339 336 332 325 312 290 281 284 283 275 260 246 240 233 223 220 218 214 210 207 206 206 207 207 208 209 210 210 210 211 214 214 210 201 195 197 203 204 204 207 209 206 205
271 272 275 280 282 281 283 288 286 280 318 359 8 12 10 6 358 349 350 356 358 355 352 351 353 356 359 3 8 6 358 351 346 342 344 356 8 10 4 358 351 341 336 335 330 324 323 321 312 298 290 285 281 281 271 250 240 235 226 219 216 213 208 205 203 203 204 205 206 206 206 206 206 207 209 212 211 204 193 187 188 187 185 187 192 198 203
267 265 268 275 276 270 263 257 256 274 311 325 328 331 339 347 348 341 339 341 341 341 343 344 345 348 352 356 1 360 354 347 341 334 336 353 4 3 354 343 334 323 313 308 305 302 302 303 299 290 284 278 275 280 272 248 233 229 225 218 214 211 209 206 205 205 205 206 205 202 200 199 200 202 202 202 203 202 196 190 186 182 180 179 179 186 196
263 257 254 251 253 255 250 243 250 274 297 304 305 310 316 319 321 326 334 340 341 339 336 335 338 342 347 352 354 353 348 344 337 329 327 339 352 353 342 326 310 302 297 288 281 276 274 273 272 272 271 268 268 275 264 239 223 219 220 218 214 211 209 207 206 206 206 204 202 199 197 196 196 196 196 194 193 190 188 187 185 181 179 174 166 163 169
259 252 247 244 246 249 251 253 259 269 281 288 292 299 304 308 311 317 327 338 345 343 335 332 334 338 340 345 348 346 340 337 332 325 321 321 329 336 331 310 281 274 282 275 261 252 249 250 254 255 249 247 253 256 245 226 213 207 208 211 210 208 204 201 200 199 197 195 194 193 192 190 188 185 184 184 182 179 177 177 175 173 172 169 165 163 165
268 256 248 246 247 247 247 250 254 259 266 273 279 286 295 305 313 316 318 327 336 337 333 333 335 334 334 341 346 340 330 328 325 317 309 308 315 324 322 305 277 262 262 253 242 239 239 238 243 243 231 224 229 230 223 214 205 196 191 192 194 195 193 192 191 189 186 184 182 180 180 181 180 177 175 173 170 167 165 163 163 163 162 163 169 173 172
290 268 253 248 247 246 244 244 245 247 254 262 273 283 293 306 317 319 319 323 328 329 330 334 336 334 337 348 350 333 318 317 315 308 303 304 307 308 304 293 277 264 254 241 230 230 229 224 223 225 219 214 215 213 208 203 195 184 178 176 177 177 177 179 181 180 176 173 173 172 170 170 169 167 165 162 158 157 157 155 154 153 152 153 159 164 167
303 274 255 248 246 244 244 242 240 242 247 255 266 280 293 306 317 322 322 320 319 322 327 333 337 338 339 342 334 314 301 296 294 291 291 294 292 284 278 272 263 252 242 232 226 225 225 220 210 205 210 216 216 212 208 200 186 173 165 161 160 161 163 166 168 168 165 163 164 164 161 158 156 156 155 154 154 156 156 153 149 146 144 145 145 141 142
327 288 250 241 237 236 236 237 239 243 249 257 267 280 295 305 311 318 318 313 315 321 328 336 350 346 324 315 298 278 267 269 273 270 261 259 256 247 237 225 207 188 178 188 203 210 214 214 205 197 200 205 202 201 204 202 188 172 161 154 151 152 154 155 156 156 155 154 153 153 152 151 151 150 150 149 149 150 148 145 141 139 139 138 134 129 130
358 321 276 252 236 227 223 225 239 255 266 276 284 294 303 306 309 314 310 309 318 324 329 30 139 261 295 271 206 185 191 206 203 172 168 183 195 194 182 171 166 159 154 160 176 184 187 192 196 198 198 194 186 183 183 181 174 167 161 157 153 150 148 147 147 147 148 147 147 148 148 149 148 147 145 143 142 142 141 140 139 141 141 137 131 127 125
40 23 333 259 228 214 207 211 239 266 283 294 301 309 312 313 325 333 318 314 319 316 139 136 143 174 168 136 134 133 133 138 141 139 139 145 153 160 159 156 156 155 154 158 165 167 163 164 174 186 189 183 175 170 168 164 161 159 158 157 154 149 146 146 146 145 145 146 146 147 147 147 148 149 148 147 146 146 146 146 147 148 146 140 134 131 125
46 56 74 90 104 122 131 137 158 167 115 76 59 35 24 44 63 70 86 109 130 136 132 130 139 151 129 116 114 113 112 116 125 130 127 126 134 145 149 144 142 145 146 147 149 152 156 163 170 175 176 172 165 163 165 165 161 157 154 153 151 147 145 146 146 145 145 146 147 147 147 148 149 151 151 150 149 149 149 148 149 150 146 141 140 141 137
43 52 67 76 79 81 86 89 95 106 106 100 93 88 86 87 90 95 106 118 125 126 123 124 130 128 116 111 111 109 106 109 116 119 117 116 126 140 139 130 128 132 132 126 126 135 146 156 161 162 167 171 168 164 164 167 165 159 152 149 148 147 146 146 145 145 146 148 148 148 148 149 148 148 148 149 150 151 152 151 149 148 147 144 146 150 151
42 48 59 67 70 74 78 80 81 85 91 91 89 87 89 91 90 91 99 108 112 111 109 112 116 116 113 112 111 107 103 103 108 111 110 110 120 130 125 110 103 106 106 107 118 126 130 139 145 142 143 155 164 166 166 167 165 160 154 150 148 147 147 147 146 147 147 147 147 147 147 147 146 145 147 150 152 154 154 153 152 151 151 150 153 160 163
41 45 52 60 64 67 71 74 72 73 77 79 78 77 81 85 85 84 88 96 101 101 101 103 107 108 106 104 103 102 100 101 103 104 101 100 104 108 104 93 85 84 90 110 129 125 120 128 134 129 124 130 144 156 165 169 167 161 156 152 148 145 143 142 142 143 144 145 147 149 149 150 150 151 151 153 154 155 155 154 154 154 154 155 159 163 164
42 43 48 55 59 61 64 66 65 66 71 75 74 72 73 76 77 77 79 84 88 91 94 97 99 99 97 94 93 93 94 96 99 100 97 95 94 92 91 89 87 85 90 107 115 110 111 119 123 120 118 123 128 136 151 163 169 168 164 160 156 151 146 144 144 143 144 146 150 153 153 153 154 154 154 154 155 156 156 156 156 156 157 162 168 170 169
48 47 50 54 57 59 61 62 63 64 67 70 71 70 72 73 73 73 75 77 79 81 84 86 88 89 89 88 88 88 88 89 91 92 92 91 87 81 79 81 85 88 91 97 96 91 94 101 102 100 103 110 116 123 133 145 156 161 161 160 158 154 151 151 151 150 150 153 156 157 157 157 157 156 157 158 158 158 158 159 160 161 162 164 166 169 172
54 54 54 55 57 58 59 61 63 64 66 67 68 68 69 70 69 69 72 75 76 76 77 79 80 82 82 82 83 85 85 85 85 84 83 81 77 74 72 75 82 88 91 92 91 86 79 76 77 80 82 86 94 103 111 120 130 139 143 145 144 142 138 138 139 140 142 146 146 145 145 147 148 146 144 143 140 138 139 143 145 148 153 158 162 169 180
59 60 60 60 60 59 58 57 57 58 61 66 70 72 70 69 68 66 67 71 73 74 73 73 73 74 76 76 76 78 81 82 84 84 82 78 75 72 70 71 77 83 85 85 84 83 77 70 69 69 69 72 80 88 92 96 103 110 114 116 116 114 114 115 117 119 120 120 119 118 118 119 120 120 119 118 116 115 116 119 122 126 134 142 149 156 168
65 64 64 65 66 66 65 63 59 55 55 59 66 71 73 74 74 70 67 67 69 69 70 70 68 68 70 71 71 72 73 76 80 84 83 80 75 71 68 67 68 71 74 76 78 77 74 71 70 68 63 63 70 78 82 84 86 88 91 93 95 97 99 101 102 103 104 105 106 107 108 109 110 111 112 113 114 116 117 118 120 121 124 127 129 132 136
71 70 69 69 69 70 71 70 68 65 61 59 60 62 65 70 76 77 75 72 70 69 69 70 69 67 67 67 67 68 68 68 69 73 76 76 73 70 68 66 64 63 66 70 73 73 70 67 65 65 64 63 64 68 72 75 78 80 82 84 86 88 91 93 94 95 97 97 98 100 101 103 104 106 107 110 112 113 112 112 113 115 119 123 126 127 128
73 74 74 72 70 71 72 73 72 72 70 66 64 63 62 64 70 75 77 79 78 76 75 76 76 74 73 72 71 70 69 67 65 64 65 68 69 68 66 66 66 66 66 67 70 70 69 66 64 64 65 65 66 68 71 72 74 77 80 82 84 84 85 85 87 88 89 90 91 93 94 96 98 99 101 103 104 104 104 105 105 105 107 111 113 115 118
69 68 68 69 69 69 71 71 69 69 69 69 68 67 65 66 71 75 78 81 82 81 81 83 84 83 81 80 79 79 79 78 76 73 70 71 72 69 62 58 59 61 63 64 64 64 65 66 66 64 62 61 63 66 69 71 74 79 84 88 89 88 86 86 85 84 84 84 83 83 84 86 88 90 93 94 95 94 95 96 96 94 93 95 97 98 102
68 64 61 61 62 65 68 68 65 62 63 68 73 73 71 71 76 81 86 89 90 88 86 87 87 87 88 88 87 85 85 86 87 86 85 85 85 82 75 67 63 62 64 67 68 68 67 67 66 64 63 64 66 65 65 66 69 72 78 84 87 89 90 90 89 88 88 87 84 81 79 78 77 78 79 80 82 83 85 85 84 81 78 77 78 77 75
70 67 63 60 58 59 63 67 67 63 59 63 74 82 80 76 76 81 87 92 94 93 92 91 90 88 88 89 90 90 91 92 94 95 95 94 93 93 92 90 86 82 80 81 81 81 80 79 79 78 79 83 85 87 89 92 94 94 95 95 94 93 93 94 93 93 93 93 91 88 85 81 77 74 71 67 65 65 66 68 68 63 57 55 57 57 54
71 68 63 60 58 58 60 64 69 68 63 62 72 83 83 77 74 77 82 88 90 88 86 86 87 88 89 89 89 90 94 99 102 103 101 97 95 95 97 99 99 98 95 93 92 92 91 93 96 98 100 100 100 102 105 107 108 108 107 105 102 101 102 103 103 101 98 97 97 95 93 89 85 78 71 64 59 55 53 53 50 43 35 32 32 31 28
65 63 60 58 60 63 66 67 71 74 71 69 74 84 87 81 75 72 74 80 85 85 81 79 79 82 87 90 92 92 93 95 98 100 101 98 94 92 92 93 96 97 98 97 97 97 96 97 99 102 103 103 103 103 105 107 108 107 106 105 104 103 104 106 107 105 102 101 99 96 93 92 90 86 82 79 75 68 62 54 44 34 27 25 23 20 14
52 53 52 53 58 64 66 66 71 81 82 80 82 89 95 93 87 81 77 77 79 80 79 78 75 75 79 87 93 96 96 95 93 92 92 91 89 87 87 87 90 92 95 95 95 95 94 94 94 95 96 97 97 98 100 103 104 103 102 103 104 104 105 106 107 106 105 105 103 101 100 101 101 99 99 98 93 82 67 48 33 23 16 13 11 9 8